Daily Tabular Data
[Select Refresh to Update]
8/30/26
Time Wind Dir Wind Spd Wind Gust Hum In Humidity Temp In Temp Raw Barom Tot Rain Wind Chill Heat Ix In Heat Index Dew Point DailyRain HourRain RainRate
° mph mph % % °F °F in in °F °F °F °F in in in/hr
12:00am 116 0 3 62 83 79.1 73.9 28.95 0.00 73.9 81.1 78.5 68.4 0.00 0.00 0.000
12:30am 91 1 8 63 86 79.3 73.4 28.95 0.00 73.4 81.4 78.5 69.0 0.00 0.00 0.000
1:00am 97 0 7 64 88 79.2 72.7 28.95 0.00 72.7 81.5 78.0 68.9 0.00 0.00 0.000
1:30am 97 1 6 65 91 79.1 71.5 28.95 0.00 71.5 81.5 77.3 68.7 0.00 0.00 0.000
2:00am 72 0 5 66 92 78.6 71.3 28.94 0.00 71.3 81.1 77.2 68.9 0.00 0.00 0.000
2:30am 110 0 2 67 93 78.0 71.0 28.94 0.00 71.0 80.6 77.1 68.9 0.00 0.00 0.000
3:00am 222 0 3 68 93 77.9 70.9 28.94 0.00 70.9 80.6 77.0 68.8 0.00 0.00 0.000
3:30am 75 3 4 68 93 77.7 70.7 28.94 0.00 70.7 80.4 76.8 68.6 0.00 0.00 0.000
4:00am 106 2 5 68 94 77.8 70.4 28.95 0.00 70.4 80.5 76.6 68.6 0.00 0.00 0.000
4:30am 130 0 4 67 95 78.3 69.9 28.95 0.00 69.9 80.9 76.3 68.4 0.00 0.00 0.000
5:00am 143 1 6 66 95 78.5 69.5 28.94 0.00 69.5 81.0 75.9 68.0 0.00 0.00 0.000
5:30am 106 0 5 66 96 78.4 69.4 28.95 0.00 69.4 80.9 76.0 68.2 0.00 0.00 0.000
6:00am 75 1 5 66 95 78.2 69.4 28.96 0.00 69.4 80.7 75.8 67.9 0.00 0.00 0.000
6:30am 66 2 3 65 94 78.3 69.5 28.97 0.00 69.5 80.7 75.7 67.7 0.00 0.00 0.000
7:00am 73 2 5 66 94 77.9 69.5 28.97 0.00 69.5 80.4 75.7 67.7 0.00 0.00 0.000
7:30am 75 0 6 66 93 77.6 70.2 28.98 0.00 70.2 80.1 76.3 68.1 0.00 0.00 0.000
8:00am 99 3 7 67 92 77.6 71.0 28.98 0.00 71.0 80.2 76.9 68.6 0.00 0.00 0.000
8:30am 65 2 6 66 88 78.2 73.3 28.98 0.00 73.3 80.7 78.6 69.5 0.00 0.00 0.000
9:00am 104 1 4 64 81 79.2 76.5 28.98 0.00 76.5 81.5 80.9 70.2 0.00 0.00 0.000
9:30am 239 0 3 62 76 80.6 79.1 28.97 0.00 79.1 82.8 82.8 70.9 0.00 0.00 0.000
10:00am 94 4 5 60 72 81.9 81.1 28.98 0.00 81.1 84.3 85.2 71.2 0.00 0.00 0.000
10:30am 284 0 6 58 69 82.7 83.7 28.98 0.00 83.7 85.0 89.5 72.5 0.00 0.00 0.000
11:00am 295 1 4 58 63 83.0 85.2 28.98 0.00 85.2 85.5 90.6 71.2 0.00 0.00 0.000
11:30am 151 1 5 57 60 83.2 86.9 28.98 0.00 86.9 85.6 92.9 71.4 0.00 0.00 0.000
12:00pm 292 1 6 57 57 83.3 89.1 28.97 0.00 89.1 85.7 96.1 71.9 0.00 0.00 0.000
12:30pm 216 3 10 57 57 83.6 90.1 28.97 0.00 90.1 86.1 98.3 72.8 0.00 0.00 0.000
1:00pm 223 5 10 56 60 83.7 89.6 28.96 0.00 89.6 86.1 98.7 73.9 0.00 0.00 0.000
1:30pm 210 5 13 54 61 83.7 88.6 28.97 0.00 88.6 85.6 97.0 73.4 0.00 0.00 0.000
2:00pm 146 6 11 52 61 83.3 88.3 28.96 0.00 88.3 84.6 96.3 73.2 0.00 0.00 0.000
2:30pm 182 5 12 52 61 83.4 88.6 28.95 0.00 88.6 84.8 97.0 73.4 0.00 0.00 0.000
3:00pm 97 8 12 50 62 82.3 87.6 28.95 0.00 87.6 83.1 95.2 73.0 0.00 0.00 0.000
3:30pm 124 0 10 51 61 82.2 88.0 28.94 0.00 88.0 83.1 95.6 72.9 0.00 0.00 0.000
4:00pm 80 3 10 48 59 82.4 87.6 28.92 0.00 87.6 82.9 93.9 71.5 0.00 0.00 0.000
4:30pm 144 4 9 49 58 79.5 87.9 28.92 0.00 87.9 80.2 94.0 71.3 0.00 0.00 0.000
5:00pm 198 4 10 49 57 79.8 86.9 28.92 0.00 86.9 80.5 91.7 69.8 0.00 0.00 0.000
5:30pm 245 1 8 48 53 82.3 87.4 28.92 0.00 87.4 82.8 91.1 68.2 0.00 0.00 0.000
6:00pm 205 3 7 48 58 83.3 85.1 28.93 0.00 85.1 83.9 88.8 68.7 0.00 0.00 0.000
6:30pm 266 2 7 49 61 84.5 83.5 28.93 0.00 83.5 85.6 87.0 68.6 0.00 0.00 0.000
7:00pm 290 3 6 48 68 85.1 79.8 28.92 0.00 79.8 86.1 82.5 68.3 0.00 0.00 0.000
7:30pm 233 0 8 47 76 83.5 77.2 28.93 0.00 77.2 83.9 80.9 69.1 0.00 0.00 0.000
8:00pm 302 2 7 56 86 83.0 73.3 28.94 0.00 73.3 85.1 78.4 68.9 0.00 0.00 0.000
8:30pm 290 1 5 56 85 83.4 72.5 28.95 0.00 72.5 85.6 77.4 67.7 0.00 0.00 0.000
9:00pm 247 0 1 57 85 82.7 72.9 28.97 0.00 72.9 84.8 77.8 68.1 0.00 0.00 0.000
9:30pm 87 0 1 59 84 81.5 73.4 28.97 0.00 73.4 83.6 78.2 68.3 0.00 0.00 0.000
10:00pm 151 0 5 60 88 81.3 72.4 28.98 0.00 72.4 83.5 77.7 68.6 0.00 0.00 0.000
10:30pm 80 0 2 61 88 80.8 72.2 28.97 0.00 72.2 82.9 77.5 68.5 0.00 0.00 0.000
11:00pm 107 3 3 62 89 80.4 71.7 28.97 0.00 71.7 82.5 77.2 68.3 0.00 0.00 0.000
11:30pm 105 0 5 63 90 80.0 71.5 28.98 0.00 71.5 82.1 77.1 68.4 0.00 0.00 0.000